Weather History for Haines, AK

Change the Weather History Date:

Tuesday, March 4, 2014

  Actual Average Record
Temperature  
Mean Temperature 16 °F -  
Max Temperature 23 °F 30 °F 44 °F (1990)
Min Temperature 9 °F 23 °F -2 °F (2007)
Degree Days  
Heating Degree Days 48    
Moisture  
Dew Point 0 °F    
Average Humidity 49    
Maximum Humidity 61    
Minimum Humidity 35    
Precipitation  
Precipitation 0.00 in - - ()
Sea Level Pressure  
Sea Level Pressure 30.13 in    
Wind  
Wind Speed 11 mph (WNW)    
Max Wind Speed 16 mph    
Max Gust Speed -    
Visibility 10 miles    
Events      
Averages and records for this station are not official NWS values.
T = Trace of Precipitation, MM = Missing Value Source: NWS Daily Summary

Daily Weather History Graph

Daily Weather History Graph

Search for Another Location

Airport:

Trip Planner

Search our weather history database for the weather conditions in past years. The results will help you decide how hot, cold, wet, or windy it might be!

Date:

Astronomy

Mar. 04, 2014 Rise Set
Actual Time 6:49 AM AKST 5:38 PM AKST
Civil Twilight 6:09 AM AKST 6:19 PM AKST
Nautical Twilight 5:22 AM AKST 7:06 PM AKST
Astronomical Twilight 4:34 AM AKST 7:55 PM AKST
Moon 7:41 AM AKST (3/4) 11:02 PM AKST (3/4)
Length of Visible Light 12h 10m
Length of Day
10h 48m
Waxing Crescent, 16% of the Moon is Illuminated
Mar 4
Waxing Crescent
Mar 8
First Quarter
Mar 16
Full
Mar 23
Last Quarter
Mar 30
New

Hourly Weather History & Observations

Time (AKST) Temp. Windchill Dew Point Humidity Pressure Visibility Wind Dir Wind Speed Gust Speed Precip Events Conditions
12:54 AM - - - N/A% 30.10 in 10.0 mi WNW 10.4 mph - N/A   Clear
1:54 AM - - - N/A% 30.12 in 10.0 mi WNW 12.7 mph - N/A   Clear
2:54 AM - - - N/A% 30.12 in 10.0 mi WNW 11.5 mph - N/A   Clear
3:54 AM - - - N/A% 30.12 in 10.0 mi WNW 10.4 mph - N/A   Clear
4:54 AM - - - N/A% 30.14 in 10.0 mi WNW 12.7 mph - N/A   Clear
5:54 AM - - - N/A% 30.14 in 10.0 mi WNW 12.7 mph - N/A   Clear
6:54 AM - - - N/A% 30.15 in 10.0 mi WNW 13.8 mph - N/A   Clear
7:54 AM - - - N/A% 30.15 in 10.0 mi WNW 15.0 mph - N/A   Clear
8:54 AM - - - N/A% 30.17 in 10.0 mi West 16.1 mph - N/A   Clear
9:54 AM - - - N/A% 30.17 in 10.0 mi WNW 15.0 mph - N/A   Clear
10:54 AM - - - N/A% 30.17 in 10.0 mi WNW 13.8 mph - N/A   Clear
11:54 AM - - - N/A% 30.15 in 10.0 mi WNW 13.8 mph - N/A   Clear
12:54 PM - - - N/A% 30.14 in 10.0 mi West 10.4 mph - N/A   Clear
1:54 PM 21.9 °F 12.5 °F -0.9 °F 37% 30.14 in 10.0 mi West 8.1 mph - N/A   Clear
2:54 PM 23.0 °F 18.4 °F -0.9 °F 35% 30.12 in 10.0 mi West 3.5 mph - N/A   Clear
3:54 PM 23.0 °F 14.7 °F 3.0 °F 42% 30.12 in 10.0 mi West 6.9 mph - N/A   Clear
4:54 PM 19.0 °F - 1.9 °F 47% 30.12 in 10.0 mi Calm Calm - N/A   Clear
5:54 PM 18.0 °F 12.7 °F -0.0 °F 45% 30.12 in 10.0 mi Variable 3.5 mph - N/A   Clear
6:54 PM 14.0 °F - 1.0 °F 56% 30.12 in 10.0 mi Calm Calm - N/A   Clear
7:54 PM 12.9 °F 3.8 °F -0.0 °F 56% 30.13 in 10.0 mi WNW 5.8 mph - N/A   Clear
8:54 PM 15.1 °F 2.5 °F -2.9 °F 45% 30.12 in 10.0 mi WNW 10.4 mph - N/A   Clear
9:54 PM 10.9 °F -4.1 °F -2.0 °F 56% 30.12 in 10.0 mi WNW 12.7 mph - N/A   Clear
10:54 PM 10.0 °F -5.2 °F -2.0 °F 58% 30.12 in 10.0 mi WNW 12.7 mph - N/A   Clear
11:54 PM 9.0 °F -5.9 °F -2.0 °F 61% 30.11 in 10.0 mi WNW 11.5 mph - N/A   Clear